リード彗星

238P/Read (2016)

English version
Home page
Updated on March 3, 2018

---------------------------------------------------------------------

・ プロフィール

・ 写真集

・ 軌道要素

Epoch 2016 Oct. 19.0 TT = JDT 2457680.5
T 2016 Oct. 22.62371 TT                                 MPCW
q   2.3661490            (2000.0)            P               Q
n   0.17501635     Peri.  324.94273     +0.95822782     -0.28548176
a   3.1653152      Node    51.65427     +0.26719020     +0.87195760
e   0.2524760      Incl.    1.26465     +0.10202377     +0.39773120
P   5.63
From 202 observations 2005 Oct. 23-2017 Nov. 16, mean residual 0".5.

・ 光度変化

        m1 = 8.0 + 5 logΔ + 30 log r

---------------------------------------------------------------------

軌道要素はM.P.E.C. 2017-X08に掲載されたものです。
光度グラフはComet for Windowsで作成したものです。

---------------------------------------------------------------------

Copyright(C) Seiichi Yoshida (comet@aerith.net). All rights reserved.